Location: Worth Mountain WMA
(34.9569°N, 81.4819°W)
Time: 20:32:20
(UTC-05:00)

Cosmos 2360 Rocket - Pass Details

Date: 18 August 2017
Orbit: 833 x 846 km, 71.0° (Epoch: 22 November)

Event Time Altitude Azimuth Distance (km) Brightness Sun altitude
Exits shadow 22:37:55 30° 216° (SW) 1,445 3.3 -27.3°
Maximum altitude 22:40:41 69° 292° (WNW) 893 2.4 -27.7°
Drops below altitude 10° 22:46:17 10° 16° (NNE) 2,449 4.9 -28.6°
Sets 22:48:45 0° 19° (NNE) 3,385 5.6 -29.0°
